CZ-6A DEB, 54905

Orbit data source: Space-Track

CZ-6A DEB, 54905 is space debris in SSO originally from a launch on Fri, 11 Nov 2022 UTC launched from the Taiyaun Space Center, China (TSC). Debris objects in space refer to the collection of defunct objects orbiting the Earth. Examples of debris include non-operational satellites, rocket bodies, and fragments generated from explosions, collisions, or faulty payload assembly.

Loading next visibility...
Identifier
54905, 2022-151QS
Orbit
SSO
Country
Flag of CNCN / PRC
Related business
Manufacturer
SAST
Mission
Spacecraft
Bus & Motor
Unknown
Mass
Unknown
Launch date (UTC)
2022-11-11 (3 years ago)
Launch vehicle
Unknown
Launch site
Taiyaun Space Center, China (TSC)
Object type
Payload
Rocket body
Debris
Shape & HBR
Unknown shape, 0.1 m
Radar Cross Section
Small (<0.1 m²)

Expand to show TLE details & history
Last TLE update: 12 hours ago

TLE from 12 hours ago
0 CZ-6A DEB
1 54905U 22151QS  25355.12564462  .00001787  00000-0  48764-3 0  9999
2 54905  98.7330  49.9191 0083655 100.1281 260.9359 14.46580215160735
Epoch: 2025-12-21T03:00Z
TLE epoch observation values (Epoch: 2025-12-21T03:00:55.695Z)
Latitude
-0.00007°
Longitude
-85.25553°
Altitude
749.654 km
Speed
7.475 km/s
True Right ascension
03h 19m 40s
True Declination
0° 00' 00"
Sunlit
Object was in full shadow at epoch
Visualization orbit readout
Latitude
Unknown
Longitude
Unknown
Altitude
Unknown
Speed
Unknown
Apparent Right ascension
Unknown
Apparent Declination
Unknown
Sunlit
N/A
Visualization observer readout
Local Sidereal Time
13:56:07
Azimuth
Unknown
Elevation
Unknown
Doppler factor
Unknown
Orbital elements
Apogee altitude
793.46 km
Perigee altitude
674.468 km
Semi-major axis
7,112.101 km
Eccentricity
0.00837
Inclination
98.733°
RAAN
49.9191°
Arg. of periapsis
100.1281°
True anomaly
259.99085°
Mean anomaly
260.9359°
Eccentric anomaly
260.46322°
Mean motion
3.61865 °/min
Orbital period
99.48 mins
BSTAR
0.00048764
Loading maneuver chart data...
Computing Atmospheric mass density...
Loading historical data...
Loading historical data...
Loading historical data...
Loading historical data...
Loading historical data...
Loading historical data...
Loading historical data...

Documentation

Showing up to 5 results
|